Regional Weather Roundup
Issued by NWS New Orleans/Baton Rouge, LA

Home | Current Version | Previous Version | Graphics & Text | Print | Product List | Glossary On
Versions: 1 2 3 4 5 6 7 8 9 10 11 12 13 14 15 16 17 18 19 20 21 22 23 24 25 26 27 28 29 30 31 32 33 34 35 36 37 38 39 40 41 42 43 44 45 46 47 48 49 50
456
ASUS44 KLIX 031801
RWRLIX
NEW ORLEANS REGIONAL WEATHER ROUNDUP
NATIONAL WEATHER SERVICE NEW ORLEANS LA
1200 PM CST TUE MAR 03 2015

NOTE: "FAIR" INDICATES FEW OR NO CLOUDS BELOW 12,000 FEET WITH NO
      SIGNIFICANT WEATHER AND/OR OBSTRUCTIONS TO VISIBILITY.
      SKY/WX - SKY CONDITION AND SIGNIFICANT WEATHER.
      TMP - AIR TEMPERATURE.     DP    - DEWPOINT TEMPERATURE.
      RH  - RELATIVE HUMIDITY.   PRES  - PRESSURE.
      HI  - HEAT INDEX.          WCI   - WIND CHILL INDEX.

*  THESE STATIONS ARE NOT NWS OR FAA STATIONS AND ARE NOT UNDER
   NWS QUALITY CONTROL.

LAZ038-040-048-061>063-065>067-069-031900-
SOUTHEAST LOUISIANA

CITY           SKY/WX    TMP DP  RH WIND       PRES   REMARKS
N.O. AUDUBON     N/A     76  70  83 MISG        N/A
6HR MIN TEMP:  66; 6HR MAX TEMP:  77;

N.O. INTL ARPT PTSUNNY   79  68  69 S18G24    30.10F
6HR MIN TEMP:  65; 6HR MAX TEMP:  79;

N.O. LAKEFRONT CLOUDY    79  67  66 S14       30.11F
6HR MIN TEMP:  66; 6HR MAX TEMP:  79;

SLIDELL        CLOUDY    75  68  78 SE13      30.11F
6HR MIN TEMP:  64; 6HR MAX TEMP:  76;

BATON ROUGE    LGT RAIN  72  68  87 S17       30.08F VSB 1
6HR MIN TEMP:  58; 6HR MAX TEMP:  75; 6HR PCP: TRACE;

BOOTHVILLE     PTSUNNY   76  68  76 SE16G22   30.13F
6HR MIN TEMP:  62; 6HR MAX TEMP:  77;

BELLE CHASSE   PTSUNNY   78  66  66 S16       30.10F
6HR MIN TEMP:  66; 6HR MAX TEMP:  79;

BOGALUSA*        N/A     74  68  81 SE7       30.12F
6HR MIN TEMP:  66; 6HR MAX TEMP:  74;

GALLIANO*      CLOUDY    80  69  69 SE13G20   30.11F
6HR MIN TEMP:  56; 6HR MAX TEMP:  80;

NEW ROADS*     NOT AVBL
GONZALES*      NOT AVBL
HAMMOND*       NOT AVBL
HOUMA*         NOT AVBL
PORT FOURCHON* CLEAR     73  68  83 SE9G15    30.14F

$$

MSZ070-080>082-031900-
SOUTHERN MISSISSIPPI

CITY           SKY/WX    TMP DP  RH WIND       PRES   REMARKS
MCCOMB         CLOUDY    73  67  81 S13       30.09F
6HR MIN TEMP:  62; 6HR MAX TEMP:  74;

GULFPORT       CLOUDY    70  64  81 SE15      30.13F
6HR MIN TEMP:  63; 6HR MAX TEMP:  71;

BILOXI         PTSUNNY   72  66  83 SE14      30.13F
PASCAGOULA     CLOUDY    73  65  75 SE12      30.14F
6HR MIN TEMP:  62; 6HR MAX TEMP:  73;


$$

COASTAL OBSERVATIONS
LAKE AND NEARSHORE STATIONS

STATION/POSITION TIME  TEMP    WIND        PRES    WAVE
                       AIR SEA DIR/SP/G            HT/PER
                 (UTC) (F)     (DEG/KT/KT) (MB)    (FT/S)
PASCAGOULA       1718   69     110/  6/ 13 1021.0
WAVELAND YACHT   1718   63 55  140/ 10/ 13 1020.6
GRAND ISLE       1718   70 62  120/  4/  8 1020.7
SOUTHWEST PASS   1718   69 45  130/  7/  9 1020.7
NEW CANAL        1718   76     150/  6/ 11 1020.0
SHELL BEACH      1718   73 59  130/ 14/ 19 1020.3

OFFSHORE STATIONS

STATION/POSITION TIME  TEMP    WIND        PRES    WAVE
                       AIR SEA DIR/SP/G            HT/PER
                 (UTC) (F)     (DEG/KT/KT) (MB)    (FT/S)
64 S DAUPHIN ISL 1735   71 72  150/ 14/ 16 1021.2    2/ 7

$$




USA.gov is the U.S. government's official web portal to all federal, state and local government web resources and services.